Weather History for Concord, NH

Change the Weather History Date:

Saturday, February 16, 2013

  Actual Average Record
Temperature  
Mean Temperature 32 °F 25 °F  
Max Temperature 38 °F 35 °F 59 °F (1882)
Min Temperature 25 °F 14 °F -37 °F (1943)
Degree Days  
Heating Degree Days 33 40  
Month to date heating degree days 667 673  
Since 1 July heating degree days 4486 4795  
Cooling Degree Days 0 0  
Month to date cooling degree days 0 0  
Year to date cooling degree days 0 0  
Moisture  
Dew Point 22 °F    
Average Humidity 69    
Maximum Humidity 92    
Minimum Humidity 46    
Precipitation  
Precipitation 0.03 in 0.10 in 0.66 in (1993)
Month to date precipitation 1.71 1.48  
Year to date precipitation 3.26 4.18  
Snow  
Snow 1.10 in 0.50 in 8.40 in (1980)
Month to date snowfall 26.9 7.4  
Since 1 July snowfall 50.5 42.6  
Snow Depth 13.00 in    
Sea Level Pressure  
Sea Level Pressure 29.91 in    
Wind  
Wind Speed 6 mph (NW)    
Max Wind Speed 16 mph    
Max Gust Speed 20 mph    
Visibility 7 miles    
Events Snow    
T = Trace of Precipitation, MM = Missing Value Source: NWS Daily Summary

Daily Weather History Graph

Daily Weather History Graph

Search for Another Location

Airport:

Trip Planner

Search our weather history database for the weather conditions in past years. The results will help you decide how hot, cold, wet, or windy it might be!

Date:

Astronomy

Feb. 16, 2013 Rise Set
Actual Time 6:42 AM EST 5:18 PM EST
Civil Twilight 6:12 AM EST 5:47 PM EST
Nautical Twilight 5:39 AM EST 6:21 PM EST
Astronomical Twilight 5:06 AM EST 6:54 PM EST
Moon 9:41 AM EST (2/16) No Moon Set
Length of Visible Light 11h 34m
Length of Day
10h 36m
Waxing Crescent, 39% of the Moon is Illuminated
Feb 16
Waxing Crescent
Feb 17
First Quarter
Feb 25
Full
Mar 4
Last Quarter
Mar 11
New

Hourly Weather History & Observations

Time (EST) Temp. Windchill Dew Point Humidity Pressure Visibility Wind Dir Wind Speed Gust Speed Precip Events Conditions
12:51 AM 30.0 °F - 25.0 °F 82% 29.95 in 9.0 mi Calm Calm - N/A   Overcast
1:51 AM 30.0 °F - 25.0 °F 82% 29.96 in 9.0 mi Calm Calm - N/A   Overcast
2:51 AM 33.1 °F 30.0 °F 24.1 °F 70% 29.94 in 8.0 mi NNW 3.5 mph - 0.00 in Snow Light Snow
3:05 AM 33.8 °F 27.7 °F 24.8 °F 70% 29.94 in 4.0 mi NW 6.9 mph - 0.00 in Snow Light Snow
3:22 AM 32.0 °F 24.2 °F 26.6 °F 80% 29.96 in 1.8 mi WNW 9.2 mph - 0.00 in Snow Light Snow
3:33 AM 30.2 °F 25.4 °F 28.4 °F 93% 29.95 in 1.2 mi NW 4.6 mph - 0.00 in Snow Light Snow
3:44 AM 30.2 °F 26.7 °F 28.4 °F 93% 29.95 in 1.5 mi WNW 3.5 mph - 0.01 in Snow Light Snow
3:51 AM 30.9 °F - 28.9 °F 92% 29.96 in 1.5 mi Calm Calm - 0.01 in Snow Light Snow
4:33 AM 30.2 °F - 28.4 °F 93% 29.94 in 2.0 mi Calm Calm - 0.01 in Snow Light Snow
4:46 AM 30.2 °F - 28.4 °F 93% 29.94 in 3.0 mi Calm Calm - 0.01 in Snow Light Snow
4:51 AM 30.0 °F - 28.9 °F 96% 29.95 in 3.0 mi Calm Calm - 0.01 in Snow Light Snow
5:11 AM 30.2 °F - 28.4 °F 93% 29.94 in 2.0 mi Calm Calm - 0.00 in Snow Light Snow
5:28 AM 30.2 °F - 28.4 °F 93% 29.94 in 3.0 mi Calm Calm - 0.00 in Snow Light Snow
5:37 AM 30.2 °F - 28.4 °F 93% 29.94 in 2.5 mi Calm Calm - 0.01 in Snow Light Snow
5:51 AM 30.0 °F - 28.9 °F 96% 29.95 in 3.0 mi Calm Calm - 0.01 in Snow Light Snow
6:03 AM 30.2 °F - 28.4 °F 93% 29.94 in 2.5 mi Calm Calm - 0.00 in Snow Light Snow
6:26 AM 30.2 °F 26.7 °F 28.4 °F 93% 29.93 in 4.0 mi NNW 3.5 mph - 0.00 in Snow Light Snow
6:51 AM 30.0 °F - 28.9 °F 96% 29.94 in 5.0 mi Calm Calm - 0.00 in Snow Light Snow
7:51 AM 28.9 °F 25.2 °F 28.0 °F 96% 29.95 in 3.0 mi NW 3.5 mph - N/A   Overcast
8:51 AM 30.0 °F 24.1 °F 27.0 °F 88% 29.96 in 10.0 mi WNW 5.8 mph - N/A   Overcast
9:51 AM 33.1 °F 27.7 °F 25.0 °F 72% 29.94 in 10.0 mi NNW 5.8 mph - N/A   Clear
10:51 AM 35.1 °F 30.1 °F 21.0 °F 57% 29.93 in 10.0 mi NNW 5.8 mph - N/A   Clear
11:51 AM 37.9 °F 35.5 °F 19.9 °F 48% 29.91 in 10.0 mi WNW 3.5 mph - N/A   Scattered Clouds
12:51 PM 37.0 °F 31.0 °F 21.0 °F 52% 29.88 in 10.0 mi WNW 8.1 mph - N/A   Mostly Cloudy
1:51 PM 36.0 °F 29.6 °F 21.0 °F 55% 29.87 in 10.0 mi NW 8.1 mph - N/A   Overcast
2:51 PM 35.1 °F 27.4 °F 19.9 °F 54% 29.87 in 10.0 mi NNW 10.4 mph - N/A   Overcast
3:51 PM 35.1 °F 27.4 °F 18.0 °F 50% 29.88 in 10.0 mi NNW 10.4 mph - N/A   Mostly Cloudy
4:51 PM 33.1 °F 26.1 °F 17.1 °F 52% 29.85 in 10.0 mi NNW 8.1 mph - N/A   Scattered Clouds
5:51 PM 32.0 °F 24.2 °F 15.1 °F 50% 29.86 in 10.0 mi NW 9.2 mph - N/A   Overcast
6:51 PM 30.9 °F 23.5 °F 14.0 °F 50% 29.86 in 10.0 mi NNW 8.1 mph - N/A   Overcast
7:51 PM 30.0 °F 22.4 °F 12.9 °F 49% 29.85 in 10.0 mi NNW 8.1 mph - N/A   Overcast
8:51 PM 28.9 °F 20.4 °F 12.0 °F 49% 29.84 in 10.0 mi NNW 9.2 mph - N/A   Overcast
9:51 PM 27.0 °F 16.1 °F 10.9 °F 51% 29.82 in 10.0 mi NW 12.7 mph - N/A   Overcast
10:51 PM 26.1 °F 15.6 °F 9.0 °F 49% 29.81 in 10.0 mi NNW 11.5 mph - N/A   Overcast
11:51 PM 25.0 °F 16.3 °F 6.1 °F 45% 29.76 in 10.0 mi NNW 8.1 mph - N/A   Overcast